Location: Hylvaty SDH
(49.9612°N, 16.4057°E)
Time: 01:20:28
(UTC+01:00)

Transit 4A - Pass Details

Date: 11 August 2020
Orbit: 864 x 981 km, 66.8° (Epoch: 15 January)

Event Time Altitude Azimuth Distance (km) Brightness Sun altitude
Rises 12:57:56 0° 276° (W) 3,536 10.9 55.1°
Reaches altitude 10° 13:01:07 10° 293° (WNW) 2,618 10.2 55.1°
Maximum altitude 13:05:36 21° 340° (NNW) 1,992 9.6 55.1°
Drops below altitude 10° 13:10:10 10° 28° (NNE) 2,683 10.1 55.0°
Sets 13:13:29 0° 44° (NE) 3,650 10.7 55.0°
